DW8343 Weather Reports


Display with metric or nautical units.
time (UTC)temp
F
wind
direction
speed
MPH
gust
MPH
rain 1hr
in
rain 24hr
in
rain mn
in
humidity
%
barometer
mb
20260510174159 58 266 0.0 0.0 0.00 0.96 0.96 99 1023.1
20260510173655 57 11 0.0 1.0 0.00 0.96 0.96 99 1022.9
20260510173151 57 264 1.0 1.0 0.07 0.96 0.96 99 1022.7
20260510172646 58 12 0.0 1.0 0.07 0.96 0.96 99 1022.2
20260510172143 58 12 0.0 1.0 0.00 0.95 0.95 99 1021.9
20260510171640 58 216 0.0 0.0 0.00 0.95 0.95 99 1022.2
20260510171137 58 339 0.0 1.0 0.00 0.95 0.95 99 1022.1
20260510170633 58 10 0.0 1.0 0.05 0.95 0.95 99 1022.2
20260510170130 58 11 1.0 2.0 0.05 0.95 0.95 99 1022.4
20260510165626 59 24 0.0 1.0 0.00 0.94 0.94 99 1021.9
20260510165122 59 305 0.0 2.0 0.00 0.94 0.94 99 1021.4
20260510164620 58 25 0.0 1.0 0.00 0.94 0.94 99 1020.9
20260510164116 58 8 0.0 1.0 0.00 0.94 0.94 99 1021.2
20260510163611 58 256 0.0 0.0 0.00 0.94 0.94 99 1022.0
20260510163108 58 256 2.0 2.0 0.00 0.94 0.94 99 1021.3
20260510162602 58 138 1.0 3.0 0.07 0.94 0.94 99 1021.0
20260510162059 58 99 1.0 3.0 0.12 0.94 0.94 99 1020.7
20260510161555 58 30 0.0 1.0 0.12 0.93 0.93 99 1020.7
20260510161052 58 70 1.0 1.0 0.12 0.92 0.92 99 1021.5
20260510160549 58 190 1.0 1.0 0.05 0.91 0.91 99 1022.5
20260510160049 58 232 1.0 3.0 0.07 0.90 0.90 99 1022.9
20260510155545 58 233 0.0 1.0 0.00 0.89 0.89 99 1022.4
20260510155042 58 93 0.0 1.0 0.05 0.89 0.89 99 1021.8
20260510154537 59 37 0.0 1.0 0.12 0.89 0.89 99 1021.7
20260510154033 59 17 0.0 1.0 0.07 0.88 0.88 99 1021.6
20260510153528 58 319 0.0 1.0 0.00 0.87 0.87 99 1020.9
20260510153025 59 12 0.0 1.0 0.07 0.87 0.87 99 1021.6
20260510152522 59 254 1.0 2.0 0.07 0.87 0.87 99 1021.3
20260510152018 59 254 1.0 2.0 0.00 0.86 0.86 99 1020.5
20260510151515 59 59 0.0 0.0 0.00 0.86 0.86 99 1019.9
20260510151013 59 59 0.0 0.0 0.00 0.86 0.86 99 1020.0
20260510150508 59 59 0.0 0.0 0.00 0.86 0.86 99 1020.1
20260510150004 59 59 0.0 0.0 0.00 0.86 0.86 99 1019.8
20260510145500 59 59 0.0 0.0 0.05 0.86 0.86 99 1019.5
20260510144951 59 59 0.0 0.0 0.24 0.86 0.86 99 1019.0
20260510144448 59 59 0.0 0.0 0.17 0.84 0.84 99 1018.6
20260510143943 59 59 0.0 0.0 0.05 0.82 0.82 99 1018.7
20260510143439 59 59 0.0 0.0 0.00 0.81 0.81 99 1018.6
20260510142936 59 59 0.0 1.0 0.00 0.81 0.81 99 1018.2
20260510142433 60 59 0.0 0.0 0.00 0.81 0.81 99 1018.3
20260510141929 59 59 0.0 0.0 0.00 0.81 0.81 99 1017.9
20260510141426 59 59 1.0 1.0 0.00 0.81 0.81 99 1018.1
20260510140924 60 107 0.0 0.0 0.07 0.81 0.81 99 1018.3
20260510140419 59 107 0.0 0.0 0.07 0.81 0.81 99 1018.1
20260510135913 59 107 0.0 1.0 0.00 0.80 0.80 99 1017.9
20260510135410 59 107 0.0 1.0 0.00 0.80 0.80 99 1017.9
20260510134907 59 275 0.0 1.0 0.00 0.80 0.80 99 1017.6
20260510134403 59 43 0.0 1.0 0.00 0.80 0.80 99 1017.9
20260510133859 59 43 0.0 1.0 0.00 0.80 0.80 99 1018.4
20260510133356 59 41 0.0 1.0 0.00 0.80 0.80 99 1018.6
20260510132851 59 41 1.0 2.0 0.00 0.80 0.80 99 1018.7
20260510132349 59 43 0.0 1.0 0.05 0.80 0.80 99 1018.8
20260510131846 59 43 0.0 0.0 0.05 0.80 0.80 99 1019.5
20260510131344 59 43 0.0 0.0 0.00 0.79 0.79 99 1019.3
20260510130840 59 345 1.0 3.0 0.12 0.79 0.79 99 1019.0
20260510130337 59 17 0.0 1.0 0.12 0.78 0.78 99 1018.7
20260510125834 59 41 2.0 3.0 0.12 0.77 0.77 99 1018.7
20260510125330 59 227 0.0 1.0 0.12 0.76 0.76 99 1018.9
20260510124827 59 30 0.0 1.0 0.26 0.75 0.75 99 1018.7
20260510124324 58 11 0.0 2.0 0.24 0.74 0.74 99 1018.8
20260510123819 58 54 0.0 2.0 0.07 0.70 0.70 99 1018.8
20260510123315 59 39 0.0 2.0 0.24 0.70 0.70 99 1019.0
20260510122812 58 122 1.0 3.0 0.35 0.69 0.69 99 1018.4
20260510122308 58 344 0.0 3.0 0.24 0.65 0.65 99 1018.2
20260510121804 59 90 1.0 2.0 0.24 0.63 0.63 99 1018.7
20260510121302 59 39 0.0 1.0 0.35 0.61 0.61 99 1018.8
20260510120759 59 53 0.0 1.0 0.42 0.59 0.59 99 1018.8
20260510120255 59 245 0.0 1.0 0.42 0.54 0.54 99 1018.9
20260510115751 58 254 1.0 1.0 0.50 0.51 0.51 99 1019.2
20260510115249 58 88 0.0 1.0 0.42 0.46 0.46 99 1018.7
20260510114744 58 123 1.0 1.0 0.24 0.42 0.42 99 1018.5
20260510114242 58 354 1.0 1.0 0.05 0.39 0.39 99 1018.3
20260510113737 58 258 0.0 1.0 0.00 0.38 0.38 99 1018.0
20260510113235 58 292 0.0 2.0 0.07 0.38 0.38 99 1017.6
20260510112731 58 6 1.0 3.0 0.07 0.38 0.38 99 1017.0
20260510112228 59 41 0.0 1.0 0.00 0.37 0.37 99 1017.1
20260510111723 59 7 0.0 1.0 0.00 0.37 0.37 99 1016.8
20260510111220 59 25 0.0 2.0 0.00 0.37 0.37 99 1016.4
20260510110720 59 27 0.0 1.0 0.00 0.37 0.37 99 1015.8
20260510110218 60 332 1.0 1.0 0.00 0.37 0.37 99 1016.1
20260510105718 60 18 0.0 1.0 0.00 0.37 0.37 99 1015.4
20260510105217 60 15 0.0 0.0 0.00 0.37 0.37 99 1014.8
20260510104714 60 19 0.0 1.0 0.07 0.37 0.37 99 1014.4
20260510104212 60 28 0.0 1.0 0.12 0.37 0.37 99 1014.7
20260510103708 60 256 0.0 2.0 0.64 0.36 0.36 99 1014.0
20260510103205 60 335 0.0 1.0 1.30 0.34 0.34 98 1013.5
20260510102700 60 15 0.0 1.0 0.90 0.24 0.24 98 1014.0
20260510102156 61 340 0.0 0.0 0.31 0.09 0.09 97 1013.7
20260510101654 61 19 0.0 0.0 0.31 0.07 0.07 96 1013.6
20260510101152 61 232 0.0 1.0 0.17 0.04 0.04 96 1013.8
20260510100653 61 37 0.0 1.0 0.12 0.02 0.02 95 1014.0
20260510100151 61 240 1.0 1.0 0.07 0.01 0.01 95 1013.6
20260510095646 61 46 0.0 0.0 0.00 0.00 0.00 94 1013.2
20260510095141 61 37 1.0 1.0 0.00 0.00 0.00 94 1013.4
20260510094640 61 339 0.0 0.0 0.00 0.00 0.00 94 1013.3
20260510094136 61 340 0.0 1.0 0.00 0.00 0.00 94 1013.3
20260510093632 61 342 0.0 0.0 0.00 0.00 0.00 94 1013.2
20260510093130 61 342 0.0 0.0 0.00 0.00 0.00 93 1013.3
20260510092626 61 342 0.0 1.0 0.00 0.00 0.00 93 1013.4
20260510092121 61 342 1.0 1.0 0.00 0.00 0.00 93 1013.4
20260510091618 61 9 0.0 0.0 0.00 0.00 0.00 93 1013.5
20260510091114 61 9 0.0 0.0 0.00 0.00 0.00 93 1013.3
20260510090611 61 9 0.0 1.0 0.00 0.00 0.00 92 1013.2
20260510090107 61 63 0.0 1.0 0.00 0.00 0.00 92 1013.2
20260510085602 61 113 0.0 1.0 0.00 0.00 0.00 91 1013.3
20260510085058 62 48 0.0 2.0 0.00 0.00 0.00 91 1013.1
20260510084554 62 96 0.0 2.0 0.00 0.00 0.00 90 1013.6
20260510084051 62 201 1.0 3.0 0.00 0.00 0.00 90 1013.6
20260510083548 62 240 2.0 2.0 0.00 0.00 0.00 90 1013.5
20260510083044 62 222 0.0 2.0 0.00 0.00 0.00 89 1013.4
20260510082541 62 300 1.0 2.0 0.00 0.00 0.00 89 1013.5
20260510082036 62 159 1.0 2.0 0.00 0.00 0.00 88 1013.5
20260510081532 62 291 2.0 2.0 0.00 0.00 0.00 88 1013.5
20260510081027 62 28 0.0 2.0 0.00 0.00 0.00 87 1013.5
20260510080527 62 239 2.0 2.0 0.00 0.00 0.00 87 1013.7
20260510080024 62 223 1.0 3.0 0.00 0.00 0.00 87 1013.4
20260510075521 62 175 0.0 1.0 0.00 0.00 0.00 88 1013.4
20260510075018 62 153 0.0 3.0 0.00 0.00 0.00 87 1013.4
20260510074516 62 92 0.0 3.0 0.00 0.00 0.00 88 1013.5
20260510074011 62 42 3.0 6.0 0.00 0.00 0.00 88 1013.6
20260510073507 62 156 2.0 2.0 0.00 0.00 0.00 88 1013.4
20260510073004 62 34 1.0 6.0 0.00 0.00 0.00 87 1013.5
20260510072501 62 34 1.0 3.0 0.00 0.00 0.00 87 1013.7
20260510071956 62 61 1.0 8.0 0.00 0.00 0.00 87 1013.3
20260510071452 62 138 1.0 4.0 0.00 0.00 0.00 87 1013.3
20260510070951 61 269 3.0 7.0 0.00 0.00 0.00 88 1013.4
20260510070448 61 102 2.0 6.0 0.00 0.00 0.00 89 1013.2
20260510065943 61 352 2.0 8.0 0.00 0.00 0.00 89 1013.8
20260510065441 61 29 2.0 6.0 0.00 0.00 0.00 89 1013.9
20260510064936 61 91 2.0 3.0 0.00 0.00 0.00 90 1014.2
20260510064434 61 107 4.0 6.0 0.00 0.00 0.00 90 1014.7
20260510063931 61 92 1.0 2.0 0.00 0.00 0.00 91 1014.8
20260510063426 61 62 2.0 3.0 0.00 0.00 0.00 91 1015.3
20260510062924 61 288 1.0 6.0 0.00 0.00 0.00 91 1015.3
20260510062419 61 181 2.0 3.0 0.00 0.00 0.00 92 1015.7
20260510061915 61 41 1.0 1.0 0.00 0.00 0.00 92 1015.8
20260510061412 60 95 1.0 2.0 0.00 0.00 0.00 92 1016.3
20260510060908 60 248 2.0 3.0 0.00 0.00 0.00 93 1015.9
20260510060405 60 330 0.0 3.0 0.00 0.00 0.00 93 1015.6
20260510055901 59 37 1.0 7.0 0.00 0.00 0.00 95 1015.5
20260510055401 59 143 1.0 3.0 0.00 0.00 0.00 96 1015.5
20260510054855 59 14 3.0 6.0 0.00 0.00 0.00 97 1015.5
20260510054350 59 43 1.0 2.0 0.00 0.00 0.00 97 1015.3
20260510053845 59 108 2.0 6.0 0.00 0.00 0.00 98 1015.2
20260510053341 59 287 1.0 2.0 0.00 0.00 0.00 98 1014.8
20260510052838 60 55 1.0 4.0 0.00 0.00 0.00 98 1014.8
20260510052333 60 80 1.0 4.0 0.00 0.00 0.00 98 1015.2
20260510051830 60 337 1.0 2.0 0.00 0.00 0.00 98 1015.3
20260510051327 60 358 1.0 3.0 0.00 0.00 0.00 98 1014.9
20260510050824 61 9 0.0 2.0 0.00 0.00 0.00 98 1014.8
20260510050320 61 359 2.0 6.0 0.00 0.00 0.00 98 1014.1
20260510045817 61 10 0.0 1.0 0.00 0.21 0.21 98 1015.1
20260510045314 62 5 1.0 2.0 0.00 0.21 0.21 97 1014.1
20260510044811 62 31 0.0 1.0 0.00 0.21 0.21 97 1014.2
20260510044308 62 89 4.0 7.0 0.07 0.21 0.21 96 1013.6
20260510043804 62 185 0.0 1.0 0.12 0.21 0.21 95 1014.8
20260510043300 62 185 0.0 2.0 0.35 0.20 0.20 94 1014.9
20260510042758 63 26 3.0 4.0 0.66 0.19 0.19 93 1015.1
20260510042254 64 10 1.0 2.0 0.54 0.14 0.14 89 1016.6
20260510041750 65 315 2.0 3.0 0.31 0.08 0.08 84 1016.9
20260510041248 67 9 0.0 2.0 0.24 0.05 0.05 80 1017.0
20260510040745 68 184 0.0 4.0 0.12 0.03 0.03 75 1016.5
20260510040242 71 243 3.0 6.0 0.00 0.01 0.01 67 1015.8
20260510035736 72 247 1.0 2.0 0.00 0.01 0.01 63 1015.4
20260510035227 73 6 0.0 0.0 0.00 0.01 0.01 60 1014.1
20260510034723 73 6 0.0 1.0 0.00 0.01 0.01 56 1013.6
20260510034222 74 348 0.0 1.0 0.00 0.01 0.01 53 1013.4
20260510033717 74 311 1.0 2.0 0.00 0.01 0.01 53 1012.4
20260510033215 74 1 2.0 4.0 0.00 0.01 0.01 52 1011.9
20260510032711 74 5 0.0 3.0 0.00 0.01 0.01 52 1011.4
20260510032207 75 11 2.0 2.0 0.00 0.01 0.01 52 1010.8
20260510031702 75 42 4.0 6.0 0.00 0.01 0.01 52 1010.5
20260510031159 75 50 1.0 3.0 0.00 0.01 0.01 52 1010.4
20260510030658 75 6 0.0 4.0 0.00 0.01 0.01 52 1010.5
20260510030156 75 81 1.0 3.0 0.00 0.01 0.01 52 1010.5
20260510025653 76 304 2.0 7.0 0.00 0.01 0.01 51 1010.6
20260510025150 76 25 4.0 6.0 0.00 0.01 0.01 50 1011.0
20260510024648 76 40 2.0 3.0 0.00 0.01 0.01 50 1010.8
20260510024144 76 38 2.0 3.0 0.00 0.01 0.01 50 1010.9
20260510023639 76 54 1.0 4.0 0.00 0.01 0.01 50 1011.1
20260510023137 77 62 0.0 3.0 0.00 0.01 0.01 50 1010.9
20260510022636 77 320 0.0 7.0 0.00 0.01 0.01 50 1010.7
20260510022132 77 334 2.0 6.0 0.00 0.01 0.01 49 1010.8
20260510021627 77 257 0.0 2.0 0.00 0.01 0.01 49 1010.4
20260510021125 77 49 0.0 2.0 0.00 0.01 0.01 49 1010.6
20260510020619 77 92 1.0 3.0 0.00 0.01 0.01 49 1010.3
20260510020109 78 337 2.0 4.0 0.00 0.01 0.01 49 1010.0
20260510015606 78 18 3.0 4.0 0.00 0.01 0.01 48 1009.6
20260510015103 78 160 2.0 6.0 0.00 0.01 0.01 48 1009.2
20260510014558 78 318 1.0 4.0 0.00 0.01 0.01 48 1009.3
20260510014055 78 25 0.0 10.0 0.00 0.01 0.01 48 1008.8
20260510013550 78 72 1.0 2.0 0.00 0.01 0.01 48 1009.0
20260510013046 78 74 1.0 3.0 0.00 0.01 0.01 47 1009.0
20260510012545 78 31 2.0 2.0 0.00 0.01 0.01 47 1008.9
20260510012042 79 139 1.0 2.0 0.00 0.01 0.01 46 1009.1
20260510011541 79 80 2.0 4.0 0.00 0.01 0.01 45 1009.1
20260510011037 79 24 1.0 2.0 0.00 0.01 0.01 45 1009.1
20260510010534 79 64 2.0 3.0 0.00 0.01 0.01 46 1009.0
20260510010032 79 191 0.0 2.0 0.00 0.01 0.01 46 1009.0
20260510005527 80 145 2.0 3.0 0.00 0.01 0.01 45 1009.0
20260510005025 80 36 1.0 1.0 0.00 0.01 0.01 45 1009.2
20260510004522 80 118 0.0 3.0 0.00 0.01 0.01 45 1009.2
20260510004021 80 191 2.0 4.0 0.00 0.01 0.01 45 1009.4
20260510003516 80 150 1.0 3.0 0.00 0.01 0.01 45 1009.4
20260510003012 81 269 1.0 3.0 0.00 0.01 0.01 45 1009.0
20260510002508 81 64 3.0 4.0 0.00 0.01 0.01 45 1009.1
20260510002005 81 67 2.0 4.0 0.00 0.01 0.01 45 1009.3
20260510001502 82 36 0.0 1.0 0.00 0.01 0.01 45 1009.3
20260510001000 82 49 2.0 2.0 0.00 0.01 0.01 45 1009.3
20260510000455 82 211 0.0 2.0 0.00 0.01 0.01 44 1009.2
20260509235952 82 254 2.0 6.0 0.00 0.01 0.01 43 1009.1
20260509235449 83 268 1.0 6.0 0.00 0.01 0.01 42 1009.1
20260509234945 83 76 1.0 2.0 0.00 0.01 0.01 42 1009.2
20260509234442 84 37 1.0 3.0 0.00 0.01 0.01 41 1009.4
20260509233940 85 46 1.0 4.0 0.00 0.01 0.01 41 1009.4
20260509233437 84 325 3.0 7.0 0.00 0.01 0.01 41 1009.3
20260509232933 84 37 2.0 11.0 0.00 0.01 0.01 40 1009.4
20260509232431 85 292 4.0 9.0 0.00 0.01 0.01 38 1009.3
20260509231927 85 90 2.0 7.0 0.00 0.01 0.01 35 1009.5
20260509231423 85 42 0.0 7.0 0.00 0.01 0.01 37 1009.5
20260509230922 85 41 1.0 3.0 0.00 0.01 0.01 36 1009.6
20260509230418 84 1 0.0 3.0 0.00 0.01 0.01 37 1009.6
20260509225914 85 48 1.0 6.0 0.00 0.01 0.01 36 1009.6
20260509225411 85 39 2.0 4.0 0.00 0.01 0.01 38 1009.9
20260509224907 85 8 0.0 4.0 0.00 0.01 0.01 37 1009.7
20260509224403 85 36 3.0 4.0 0.00 0.01 0.01 36 1010.0
20260509223900 85 46 2.0 4.0 0.00 0.01 0.01 37 1010.0
20260509223357 86 28 3.0 6.0 0.00 0.01 0.01 32 1010.1
20260509222854 87 40 1.0 4.0 0.00 0.01 0.01 33 1010.1
20260509222354 87 143 1.0 2.0 0.00 0.01 0.01 31 1010.1
20260509221850 87 112 1.0 2.0 0.00 0.01 0.01 33 1010.2
20260509221348 85 26 1.0 6.0 0.00 0.01 0.01 33 1010.2
20260509220843 86 81 2.0 3.0 0.00 0.01 0.01 33 1010.3
20260509220339 86 152 3.0 4.0 0.00 0.01 0.01 33 1010.3
20260509215835 86 30 1.0 4.0 0.00 0.01 0.01 34 1010.3
20260509215332 86 74 1.0 6.0 0.00 0.01 0.01 34 1010.4
20260509214829 86 343 1.0 8.0 0.00 0.01 0.01 36 1010.2
20260509214326 86 21 1.0 3.0 0.00 0.01 0.01 34 1010.2
20260509213823 87 127 3.0 6.0 0.00 0.01 0.01 32 1010.2
20260509213318 87 31 0.0 3.0 0.00 0.01 0.01 34 1010.4
20260509212816 87 17 1.0 2.0 0.00 0.01 0.01 36 1010.5
20260509212314 87 62 2.0 6.0 0.00 0.01 0.01 33 1010.5
20260509211809 86 49 0.0 3.0 0.00 0.01 0.01 38 1010.4
20260509211305 86 149 2.0 4.0 0.00 0.01 0.01 34 1010.7
20260509210802 86 50 1.0 3.0 0.00 0.01 0.01 35 1010.8
20260509210259 87 18 0.0 3.0 0.00 0.01 0.01 37 1010.7
20260509205758 86 76 3.0 4.0 0.00 0.01 0.01 36 1010.8
20260509205248 86 30 3.0 4.0 0.00 0.01 0.01 36 1010.8
20260509204744 86 99 1.0 6.0 0.00 0.01 0.01 36 1011.0
20260509204241 86 79 0.0 3.0 0.00 0.01 0.01 38 1010.9
20260509203737 87 124 1.0 3.0 0.00 0.01 0.01 35 1011.0
20260509203235 86 100 0.0 2.0 0.00 0.01 0.01 39 1011.0
20260509202731 87 247 2.0 4.0 0.00 0.01 0.01 35 1011.0
20260509202227 86 103 0.0 2.0 0.00 0.01 0.01 34 1011.1
20260509201721 85 275 1.0 4.0 0.00 0.01 0.01 36 1011.1
20260509201218 85 59 0.0 2.0 0.00 0.01 0.01 37 1011.2
20260509200714 85 14 0.0 3.0 0.00 0.01 0.01 37 1011.3
20260509200210 85 76 0.0 1.0 0.00 0.01 0.01 34 1011.3
20260509195705 86 49 1.0 3.0 0.00 0.01 0.01 36 1011.4
20260509195200 85 260 0.0 1.0 0.00 0.01 0.01 37 1011.3
20260509194655 87 61 3.0 4.0 0.00 0.01 0.01 34 1011.6
20260509194152 84 68 0.0 3.0 0.00 0.01 0.01 35 1011.6
20260509193649 85 53 2.0 4.0 0.00 0.01 0.01 34 1011.8
20260509193144 86 75 1.0 2.0 0.00 0.01 0.01 33 1011.7
20260509192641 86 75 0.0 1.0 0.00 0.01 0.01 39 1011.6
20260509192135 84 96 1.0 2.0 0.00 0.01 0.01 38 1011.8
20260509191630 85 16 1.0 3.0 0.00 0.01 0.01 36 1012.0
20260509191127 83 352 2.0 7.0 0.00 0.01 0.01 36 1011.9
20260509190623 84 256 1.0 3.0 0.00 0.01 0.01 36 1012.0
20260509190121 85 65 3.0 6.0 0.00 0.01 0.01 34 1012.0
20260509185618 85 70 0.0 1.0 0.00 0.01 0.01 40 1012.1
20260509185114 84 71 1.0 2.0 0.00 0.01 0.01 30 1012.1
20260509184612 83 65 1.0 3.0 0.00 0.01 0.01 32 1012.1
20260509184109 84 42 1.0 6.0 0.00 0.01 0.01 37 1012.2
20260509183604 84 188 1.0 2.0 0.00 0.01 0.01 37 1012.2
20260509183100 84 268 2.0 3.0 0.00 0.01 0.01 40 1012.2
20260509182557 83 73 3.0 4.0 0.00 0.01 0.01 40 1012.4
20260509182053 83 197 1.0 3.0 0.00 0.01 0.01 37 1012.3
20260509181552 83 63 1.0 3.0 0.00 0.01 0.01 39 1012.4
20260509181049 83 114 1.0 3.0 0.00 0.01 0.01 39 1012.5
20260509180544 82 50 1.0 8.0 0.00 0.01 0.01 38 1012.5
20260509180042 83 341 2.0 4.0 0.00 0.01 0.01 42 1012.6
20260509175537 82 197 1.0 3.0 0.00 0.01 0.01 42 1012.7
20260509175035 82 260 2.0 2.0 0.00 0.01 0.01 42 1012.8